Voltar ao catálogo

FREGAT DEB

LostUNKNOWN
NORAD 46525·DEBRIS·🇷🇺 Russia

Lançado Jul 18, 2011 de Baikonur Cosmodrome

Loading…

Próximas Passagens (próximas 24 horas)

TLE

ObsoletoSource: Space-Track

Época: Oct 3, 2020, 06:05 UTC

1 46525U 11037MD  20277.25397574  .00008472  00000-0  82692+0 0  9991
2 46525  51.6934 211.9934 1244096 199.3180 155.6021  9.30244489  3532

Acompanhe FREGAT DEB em tempo real com AllMySat

Download on the App Store